Theta_e
329 330 330 330 331 330 330 330 329 329 327 327 327 326 325 325 323 323 323 318 323 325 323 322 320 319 318 317 317 317 316 316 314 313 311 313 313 313 311 310 309 309 310
330 330 329 328 328 328 329 328 326 326 325 325 326 326 325 325 325 324 324 320 320 324 324 323 323 321 320 319 319 317 318 317 316 315 314 312 311 313 312 310 308 308 308
328 326 327 327 327 327 327 328 327 326 325 325 325 324 325 325 324 323 324 324 320 319 322 324 323 323 322 322 322 320 319 318 318 317 316 315 313 312 311 313 310 308 306
328 326 325 325 327 325 325 324 324 323 323 323 322 321 323 323 322 322 322 323 323 322 320 322 324 324 324 324 324 324 322 319 319 318 317 317 316 314 313 313 312 311 308
327 327 326 325 326 324 323 322 322 322 320 320 320 320 320 320 321 320 320 321 321 321 321 322 320 319 322 324 325 324 325 323 320 319 318 317 317 316 314 313 314 314 311
327 326 326 326 325 324 323 322 320 320 320 319 316 314 316 318 318 318 318 319 319 320 321 320 320 317 316 321 322 324 324 324 323 321 320 318 317 317 316 315 314 316 313
327 327 325 325 324 324 322 323 321 319 318 318 314 313 315 315 315 315 317 317 317 318 317 317 317 317 317 320 320 322 324 324 324 323 322 321 319 318 317 316 315 315 316
324 324 324 324 325 324 322 321 321 319 318 316 313 312 307 312 315 315 315 315 315 315 315 314 314 315 316 316 317 320 322 324 324 324 324 323 322 320 318 318 317 315 315
325 324 323 324 323 324 322 321 321 319 316 316 315 313 306 305 308 309 308 310 312 311 312 313 312 313 313 314 315 316 318 319 322 323 323 324 323 322 321 319 318 317 316
325 326 325 324 324 324 323 323 323 321 319 315 313 312 314 314 308 307 308 308 308 307 309 310 310 311 311 311 311 309 311 315 316 319 321 323 322 321 322 322 320 318 317
325 325 325 325 323 323 323 323 322 321 320 317 314 313 312 312 312 308 305 309 308 309 309 310 310 310 310 310 310 310 309 311 313 313 315 318 321 321 320 321 322 319 319
324 325 324 324 323 322 322 322 322 320 319 317 316 312 310 308 308 307 304 306 308 311 314 311 310 310 311 310 307 304 306 310 311 311 312 313 315 318 319 319 320 322 320
322 322 323 323 323 323 323 323 321 320 319 317 316 314 313 312 313 311 308 307 307 310 310 312 314 315 314 313 312 302 303 306 308 310 310 310 312 313 315 318 320 320 321
323 323 322 322 322 323 322 321 321 320 320 317 316 315 315 314 313 312 310 308 305 307 308 309 309 309 313 315 311 301 306 303 305 307 308 309 310 311 312 314 316 317 318
323 323 323 322 322 321 321 321 320 319 319 318 316 316 314 314 314 313 312 311 307 303 305 310 310 312 310 310 308 310 307 303 304 306 306 306 306 307 309 310 312 314 316
322 322 322 322 322 322 321 320 319 319 318 318 317 316 314 315 314 313 312 311 310 307 303 309 311 311 311 309 305 305 306 299 301 302 303 304 304 305 306 307 309 311 313
320 320 320 318 313 311 311 317 317 317 317 316 313 314 308 306 307 305 306 307 308 307 304 307 309 310 308 308 307 304 301 301 301 299 301 302 302 303 303 304 305 308 310
304 305 304 304 302 302 303 305 304 304 304 302 301 300 298 300 298 299 300 299 299 299 298 297 299 300 300 301 298 298 299 299 298 298 300 301 301 301 301 302 303 304 305
297 298 297 298 297 299 298 299 299 298 297 297 297 295 295 295 295 295 296 296 296 296 297 295 295 297 298 296 293 294 294 294 295 295 298 298 299 299 300 300 301 301 301
293 294 294 294 294 295 295 295 296 295 294 295 294 293 292 291 291 292 293 292 293 293 293 292 291 291 291 291 290 289 288 290 290 292 294 294 294 295 296 297 298 297 298
290 291 291 292 292 292 293 293 294 294 294 292 292 290 289 288 289 290 291 290 291 290 290 289 288 287 288 287 286 287 286 287 288 288 289 291 292 292 293 294 294 295 297
288 289 289 289 289 290 291 292 293 292 291 290 289 289 289 288 290 290 290 290 290 288 287 287 286 285 286 285 286 285 284 283 283 288 288 288 291 290 291 292 294 295 296
286 286 287 287 286 288 289 290 290 290 289 288 288 288 287 288 287 289 289 290 288 289 289 288 285 285 284 285 284 283 283 282 283 286 287 286 289 288 290 289 293 294 296
284 285 285 286 286 287 288 289 289 289 288 287 287 287 287 286 286 287 286 286 286 286 286 286 286 285 285 285 284 283 283 283 285 287 286 282 287 285 286 286 290 292 294
283 283 284 284 285 285 287 287 288 287 286 285 285 285 286 285 286 286 284 283 283 284 286 287 287 287 287 287 286 283 280 280 280 283 285 282 284 282 282 283 285 289 293
282 283 282 283 284 284 286 286 287 286 284 284 284 284 284 285 286 286 283 282 280 281 283 283 284 285 285 285 285 283 281 279 279 280 284 280 283 282 280 281 284 285 289
Wind_Speed
5 1 2 3 3 4 5 4 4 4 5 4 3 3 5 3 4 2 2 10 6 8 8 7 6 6 5 5 4 4 3 3 3 3 3 3 4 2 1 2 4 6 7
6 4 2 3 3 3 3 3 4 4 3 4 4 4 4 3 3 3 3 6 7 7 9 9 9 8 7 7 6 6 7 7 6 7 6 5 4 3 3 2 2 2 4
5 6 5 3 4 3 3 2 3 4 4 3 4 4 3 5 5 6 5 5 6 8 8 11 11 11 10 10 10 9 9 9 9 8 9 9 8 8 7 7 5 3 1
9 7 5 4 5 4 4 4 4 4 4 4 4 4 2 4 6 7 6 5 5 5 8 11 11 12 13 14 13 13 12 12 11 11 10 11 12 10 10 9 9 8 5
9 8 6 5 5 5 5 5 4 4 4 3 3 3 3 3 4 6 8 6 7 6 5 7 12 8 12 15 16 16 15 16 14 14 14 13 13 13 12 11 11 12 10
9 8 6 7 6 6 5 5 6 5 4 4 3 3 3 4 5 6 7 7 7 8 8 8 4 5 13 16 18 20 20 19 18 17 17 16 16 16 15 14 14 15 12
8 9 4 5 7 7 8 7 6 6 5 2 2 4 5 7 9 8 7 7 8 7 7 7 6 5 6 13 17 20 22 23 22 20 19 19 19 19 18 17 16 16 15
8 6 7 7 8 7 8 8 8 5 5 6 4 1 3 4 6 5 6 6 7 7 8 9 8 9 8 7 9 17 21 24 25 24 22 21 22 21 20 20 19 18 17
11 12 11 7 6 8 7 9 10 10 6 5 8 4 2 4 1 2 5 5 7 6 7 9 11 10 10 9 11 13 19 23 25 27 26 23 22 23 23 22 21 21 20
13 14 13 12 13 8 10 8 8 8 8 6 4 7 8 5 3 3 3 5 7 8 8 7 8 10 11 10 14 16 15 22 25 25 26 26 27 27 25 25 24 24 24
11 11 13 12 11 8 10 10 7 9 8 8 6 3 7 6 7 6 8 6 5 6 7 8 8 8 10 10 10 13 18 23 22 22 23 25 26 29 29 28 27 26 26
7 12 12 10 10 9 9 8 8 9 9 6 6 4 4 4 6 6 7 9 11 8 7 7 8 8 8 9 11 15 12 18 22 23 25 25 26 28 30 31 30 29 28
5 9 9 10 9 11 11 10 10 11 10 10 10 8 8 8 7 4 5 8 7 6 4 5 7 7 8 7 10 11 14 18 21 20 22 24 26 27 29 30 31 30 28
6 6 8 8 8 10 9 8 8 8 8 9 11 9 8 8 6 6 7 6 7 6 4 11 4 7 7 8 9 6 8 13 16 18 22 24 25 26 26 28 30 30 29
3 6 8 8 8 8 7 8 7 8 8 8 9 10 8 7 6 7 7 7 6 5 6 5 4 3 3 4 7 8 8 11 13 15 19 21 23 25 26 27 29 29 31
5 4 6 7 7 7 7 7 6 6 6 6 6 7 7 6 6 5 6 6 6 7 7 3 6 4 4 4 6 6 8 9 11 13 17 18 21 23 25 26 28 29 30
6 3 4 1 5 8 7 1 1 3 5 2 3 3 5 7 5 5 5 4 3 3 7 5 4 7 6 8 9 6 6 6 6 12 15 19 21 22 23 24 26 27 28
9 8 9 8 9 8 8 9 8 8 9 9 8 9 8 5 7 6 5 5 4 3 2 4 4 4 5 9 9 12 8 7 7 10 16 19 20 21 22 23 24 24 26
11 10 10 8 8 7 10 9 8 10 10 9 9 9 8 8 7 5 4 5 4 4 3 3 4 5 4 4 10 7 9 10 8 13 19 19 19 20 21 22 22 23 24
12 12 12 10 10 10 9 9 9 9 9 9 10 10 10 10 8 8 6 7 6 5 5 5 4 6 6 7 6 9 12 9 11 12 12 11 14 16 21 22 22 22 21
13 13 13 13 12 11 7 7 9 9 8 10 9 10 10 8 11 9 6 7 7 6 5 6 6 7 6 8 9 8 9 10 10 5 5 10 10 9 9 13 15 19 22
13 13 14 12 12 9 16 13 9 9 10 9 9 9 8 11 10 12 10 10 8 7 7 5 6 7 10 9 8 8 9 10 9 2 10 12 10 10 8 8 17 19 20
11 11 12 12 12 10 16 14 12 9 10 9 9 7 7 7 9 7 8 8 7 9 9 6 8 8 10 10 8 10 9 10 9 12 11 9 7 10 7 7 17 21 21
12 10 11 9 9 9 14 12 12 10 8 10 10 8 8 7 10 7 6 7 6 6 8 7 7 7 7 10 9 9 11 11 10 8 4 5 5 9 7 7 17 19 21
12 11 9 9 10 10 15 14 10 6 7 9 8 8 8 8 12 13 7 7 6 7 8 12 12 12 14 14 13 8 9 10 9 7 5 6 5 9 4 5 7 20 23
9 5 8 8 9 9 17 15 8 2 5 4 5 6 13 9 12 14 7 7 6 9 11 11 9 8 9 9 13 8 5 6 7 6 7 10 7 7 7 3 8 10 12
Wind_Direction
166 121 293 168 172 171 156 178 170 193 198 199 194 225 210 230 170 184 193 176 212 198 204 205 203 210 226 236 256 277 270 249 250 257 296 303 334 271 27 18 6 9 14
182 166 239 199 171 208 191 178 188 181 183 203 212 222 240 251 253 259 270 172 194 254 231 229 225 236 240 237 240 256 263 259 254 257 256 269 282 276 266 262 309 6 28
216 191 206 213 191 192 185 188 179 214 208 197 243 223 250 256 253 240 241 257 187 215 251 256 252 249 245 247 243 233 252 262 259 260 266 259 257 268 265 265 242 233 324
183 198 207 206 194 186 190 187 187 204 223 215 235 241 228 256 255 262 257 259 257 266 207 235 256 266 267 259 244 246 242 252 250 253 259 261 253 252 256 242 248 237 221
194 200 198 206 199 194 201 199 193 215 209 217 245 260 248 274 272 256 255 258 256 264 264 238 217 235 258 265 267 254 245 245 247 242 247 252 258 251 246 252 252 237 233
198 203 211 202 200 208 203 202 203 200 227 222 215 246 265 258 258 250 256 250 245 246 244 254 250 237 237 250 259 260 263 255 245 243 239 241 244 249 250 249 258 251 226
199 196 223 220 200 218 218 206 211 211 208 219 191 226 251 249 242 244 240 241 252 250 252 253 244 242 251 233 249 254 256 260 262 251 241 241 240 245 245 241 244 253 235
179 194 210 216 204 213 222 218 210 209 220 178 214 322 277 251 212 239 246 239 239 242 244 242 247 243 242 247 247 245 250 255 260 261 258 243 241 240 243 247 243 240 244
201 189 210 211 230 207 213 218 220 213 208 193 225 222 201 237 359 128 225 226 233 234 241 237 237 239 238 239 244 243 240 245 250 254 257 258 254 241 239 240 243 240 240
204 203 206 201 211 204 214 210 205 215 218 220 195 240 263 289 269 284 187 222 221 221 231 234 235 232 231 235 234 235 230 230 237 243 248 251 254 255 246 235 236 239 239
213 208 216 209 211 210 217 207 201 207 213 222 208 175 225 243 247 256 280 255 201 219 232 232 235 235 229 234 242 245 236 243 244 243 244 245 247 250 253 253 236 234 235
206 215 215 217 212 216 217 218 216 206 207 214 226 207 184 184 216 216 240 263 259 264 240 224 231 238 242 234 236 245 241 239 242 245 249 249 248 246 247 249 252 240 235
206 212 207 213 216 214 217 215 220 218 214 218 217 219 219 227 231 233 230 256 277 283 268 248 251 263 265 248 249 235 237 246 252 252 251 251 252 253 250 246 245 248 240
209 196 208 221 222 218 219 208 216 210 210 215 223 226 231 228 219 225 237 249 268 259 281 270 229 232 250 266 259 260 258 253 252 255 259 258 257 257 256 255 252 247 247
194 196 203 214 221 220 213 207 214 216 207 218 227 230 228 228 229 231 227 229 241 280 284 263 265 248 252 267 265 266 247 256 249 253 259 260 263 264 259 257 255 252 246
266 199 208 211 224 215 210 213 227 229 218 226 226 222 223 230 237 231 234 234 236 254 271 282 286 311 318 283 275 277 273 284 282 276 272 269 269 270 267 260 257 250 247
264 210 244 295 51 57 33 10 290 267 230 273 359 242 50 32 29 26 13 7 330 309 280 305 331 340 342 346 345 335 291 289 289 281 278 276 274 273 270 266 262 257 253
46 61 65 67 64 54 50 53 59 54 64 62 57 62 48 55 43 33 27 28 12 19 341 317 317 331 332 350 351 337 331 325 307 292 290 286 281 278 272 267 262 257 255
53 52 59 61 61 62 60 57 64 68 65 63 64 58 50 48 42 24 30 21 9 354 17 329 326 343 332 358 340 321 329 326 320 308 301 295 286 281 280 276 270 260 252
60 58 56 50 47 55 61 70 68 70 70 66 64 61 55 47 35 23 26 20 9 9 6 358 340 328 334 343 329 329 331 333 323 314 306 299 299 297 290 288 284 277 264
53 51 52 53 46 42 33 66 81 80 78 76 66 60 51 44 37 29 25 13 16 14 2 348 348 342 336 341 345 332 318 317 318 302 320 315 317 313 300 291 275 270 265
62 57 48 49 48 44 43 38 76 83 75 70 65 55 44 37 29 45 36 37 30 24 13 348 349 338 330 335 332 326 325 330 329 339 320 312 317 306 299 290 283 278 269
64 56 55 48 50 33 46 57 57 73 79 74 63 51 45 36 27 28 23 29 27 27 18 347 343 342 332 337 325 327 328 321 299 304 302 297 309 305 307 296 298 294 281
64 54 56 44 56 47 40 50 64 74 72 68 57 50 49 33 35 26 16 15 8 22 11 358 342 337 336 337 340 330 321 314 309 308 315 302 327 305 307 302 311 311 305
62 52 50 42 53 44 40 44 59 64 74 70 66 43 46 30 22 34 28 3 359 21 1 355 350 349 352 353 356 343 354 343 337 331 32 329 325 314 306 317 325 323 322
78 82 73 47 44 44 39 46 53 35 81 87 72 52 43 42 29 29 35 4 2 7 4 353 348 351 353 344 1 5 343 339 342 322 29 337 335 342 322 336 331 340 326